Regional Weather Roundup
Issued by NWS

Home | Current Version | Previous Version | Text Only | Print | Product List | Glossary On
Versions: 1 2 3 4 5 6 7 8 9 10 11 12 13 14 15 16 17 18 19 20 21 22 23 24 25 26 27 28 29 30 31 32 33 34 35 36 37 38 39 40 41 42 43 44 45 46 47 48 49 50
000
ASUS46 KSEW 062110
RWRWA

WASHINGTON REGIONAL WEATHER ROUNDUP
NATIONAL WEATHER SERVICE SEATTLE WA
200 PM PDT WED MAY 06 2015

NOTE:"FAIR" INDICATES FEW OR NO CLOUDS BELOW 12,000 FEET WITH NO
SIGNIFICANT WEATHER AND/OR OBSTRUCTIONS TO VISIBILITY.

WAZ505-507>509-062200-
SEATTLE, TACOMA, EVERETT, AND VICINITY

CITY           SKY/WX    TMP DP  RH WIND       PRES   REMARKS
EVERETT        MOSUNNY   56  42  59 NW8       30.11F
BOEING FIELD   PTSUNNY   60  41  49 NW8       30.12F
RENTON         PTSUNNY   56  43  61 VRB3      30.12F
SEATAC AIRPORT PTSUNNY   57  41  55 N10       30.12F
JBLM-MCCHORD   PTSUNNY   56  43  61 N9        30.12F
PUYALLUP       MOCLDY    54  45  71 CALM      30.12F
BREMERTON      CLOUDY    55  43  62 N5        30.14S
JBLM-FT LEWIS  NOT AVBL
TACOMA NARROWS PTSUNNY   53  42  66 S3        30.13S
$$

WAZ001-503-506-510-514-515-062200-
NORTH INTERIOR

CITY           SKY/WX    TMP DP  RH WIND       PRES   REMARKS
BELLINGHAM     MOSUNNY   58  46  64 W8        30.12F
FRIDAY HARBOR  SUNNY     58  43  57 N12       30.15S
EASTSOUND      SUNNY     55  45  67 N3        30.13S
PORT ANGELES   SUNNY     57  44  62 VRB3      30.14F
NAS WHIDBEY    MOSUNNY   56  46  69 W10       30.14F
ARLINGTON      PTSUNNY   57  43  58 W14       30.11F
BURLINGTON     SUNNY     57  45  62 NW12      30.12S
$$

WAZ020-022-039-040-504-511-512-062200-
SOUTHWEST INTERIOR

CITY           SKY/WX    TMP DP  RH WIND       PRES   REMARKS
SHELTON        MOSUNNY   58  39  49 CALM      30.09F
OLYMPIA        PTSUNNY   57  39  51 N8        30.12F
CHEHALIS       MOCLDY    61  41  48 N9        30.12S
KELSO          MOSUNNY   63  37  39 N13G21    30.14F
VANCOUVER      PTSUNNY   59  36  42 NW14      30.09F
SCAPPOOSE, OR  PTSUNNY   60  37  42 N10       30.09F
PORTLAND, OR   PTSUNNY   59  40  49 NW14G20   30.09F
$$

WAZ021-516-517-062200-
WASHINGTON COAST

CITY           SKY/WX    TMP DP  RH WIND       PRES   REMARKS
FORKS          CLOUDY    57  48  72 W12       30.15R
HOQUIAM        MOSUNNY   58  46  64 W18G25    30.12F
ASTORIA, OR    MOSUNNY   59  44  57 NW16      30.13F
$$

WAZ019-023-024-040-518-519-062200-
CASCADE MOUNTAINS AND COLUMBIA GORGE

CITY           SKY/WX    TMP DP  RH WIND       PRES   REMARKS
TROUTDALE, OR  CLOUDY    59  39  47 VRB5      30.07F
THE DALLES, OR MOSUNNY   61  32  33 N14       29.98F
$$

WAZ026-027-041>044-520-521-062200-
EAST SLOPES

CITY           SKY/WX    TMP DP  RH WIND       PRES   REMARKS
OMAK           MOSUNNY   63  31  30 N20G30    29.98S
WENATCHEE      MOSUNNY   64  17  16 VRB6      29.94F
ELLENSBURG     LGT RAIN  57  33  40 N17       29.97S
YAKIMA         PTSUNNY   64  24  21 NE9       29.95F
$$

WAZ028-034-035-062200-
COLUMBIA BASIN

CITY           SKY/WX    TMP DP  RH WIND       PRES   REMARKS
EPHRATA        CLOUDY    57  31  37 NE22G30   29.97R
MOSES LAKE     LGT RAIN  56  30  37 N12G35    29.97R
PASCO          SUNNY     64  32  30 W6        29.96F
HERMISTON, OR  MOSUNNY   62  32  32 VRB5      29.95F
$$

WAZ036>038-062200-
NORTHEAST WASHINGTON

CITY           SKY/WX    TMP DP  RH WIND       PRES   REMARKS
SPOKANE GEIGER PTSUNNY   56  28  34 SE6       29.94F
SPOKANE FELTS  MOSUNNY   60  25  26 MISG      29.95F
FAIRCHILD AFB  PTSUNNY   55  27  33 SW6       29.94F
COEURDALENE,ID MOSUNNY   59  21  23 CALM      29.94F
DEER PARK      PTSUNNY   59  30  33 NW8       29.95F
$$

WAZ029>033-062200-
SOUTHEAST WASHINGTON

CITY           SKY/WX    TMP DP  RH WIND       PRES   REMARKS
PULLMAN        MOSUNNY   54  31  41 N6        29.95F
LEWISTON, ID   PTSUNNY   64  31  28 W13G20    29.92F
WALLA WALLA    PTSUNNY   62  32  32 W8        29.95F
PENDLETON, OR  PTSUNNY   56  30  37 VRB3      29.95F
$$



USA.gov is the U.S. government's official web portal to all federal, state and local government web resources and services.